Regional Weather Roundup
Issued by NWS

Home | Current Version | Previous Version | Text Only | Print | Product List | Glossary Off
Versions: 1 2 3 4 5 6 7 8 9 10 11 12 13 14 15 16 17 18 19 20 21 22 23 24 25 26 27 28 29 30 31 32 33 34 35 36 37 38 39 40 41 42 43 44 45 46 47 48 49 50

000
ASUS43 KDMX 280107
RWRIA

WEATHER ROUNDUP FOR IOWA
NATIONAL WEATHER SERVICE DES MOINES IA
800 PM CDT SUN JUL 27 2014

NOTE: "FAIR" INDICATES FEW OR NO CLOUDS BELOW 12,000 FEET WITH NO
SIGNIFICANT WEATHER AND/OR OBSTRUCTIONS TO VISIBILITY.

* - THESE STATIONS ARE NOT NWS STATIONS...THUS NOT UNDER NWS
QUALITY CONTROL.  THEY ALSO DO NOT REPORT WEATHER SUCH
AS PRECIPITATION OR FOG.

IAZ001>003-012>014-020>022-031>034-043>046-280200-
   NORTHWEST IOWA

CITY           SKY/WX    TMP DP  RH WIND       PRES   REMARKS
CARROLL *      PTCLDY    70  57  64 NW12G17   30.10R
CHEROKEE *     CLEAR     68  59  73 N7        30.13R
DENISON *      CLEAR     70  55  60 N13G18    30.10R
LE MARS *      CLEAR     70  57  64 N12       30.15R
ORANGE CITY *  CLEAR     68  55  64 NW9G17    30.15S
SHELDON *      PTCLDY    66  57  72 NW13      30.13R
SIOUX CITY     PTCLDY    74  57  55 N15       30.12S
SPENCER        PTCLDY    69  57  65 NW14      30.12R
STORM LAKE *   PTCLDY    68  59  73 NW15G22   30.13R
$$

IAZ055>058-069>071-079>083-090>094-280200-
   SOUTHWEST IOWA

CITY           SKY/WX    TMP DP  RH WIND       PRES   REMARKS
ATLANTIC *     CLEAR     72  57  60 N10       30.10S
AUDUBON *      CLEAR     73  63  68 N9        30.12R
CLARINDA *     PTCLDY    73  59  60 N8        30.12R
COUNCIL BLFS * MOCLDY    73  59  60 N8        30.11S
CRESTON *      CLEAR     72  57  60 NW14      30.10R
HARLAN  *      CLEAR     72  57  60 N10G17    30.14S
LAMONI         CLEAR     71  56  58 N10       30.08R
RED OAK *      CLEAR     73  59  60 N9        30.11R
SHENANDOAH *   PTCLDY    73  59  60 N10G16    30.11R
$$

IAZ047>049-059>061-072>074-084-280200-
   CENTRAL IOWA

CITY           SKY/WX    TMP DP  RH WIND       PRES   REMARKS
AMES           CLEAR     71  57  61 NW17      30.05R
ANKENY *       CLEAR     72  57  60 NW13G24   30.05S
CHARITON *     CLEAR     72  57  60 NW15      30.06R
DES MOINES     PTCLDY    73  56  54 N15G24    30.05R
GRINNELL*      PTCLDY    70  59  68 NW9       30.03R
KNOXVILLE *    CLEAR     72  57  60 NW16      30.03R
MARSHALLTOWN   CLEAR     70  60  70 NW15      30.02R
PELLA *        CLEAR     72  59  64 NW9       30.05R
PERRY *          N/A     70  59  68 NW8       30.08S
$$

IAZ004>006-015-016-023>025-035-036-280200-
   NORTH CENTRAL IOWA

CITY           SKY/WX    TMP DP  RH WIND       PRES   REMARKS
ALGONA *       PTCLDY    70  59  68 NW13G21   30.08R
CLARION *      PTCLDY    70  59  68 NW16G23   30.05S
ESTHERVILLE    PTCLDY    68  58  70 NW14G28   30.09R
FORT DODGE *   PTCLDY    70  57  64 NW9       30.08S
MASON CITY     PTCLDY    68  61  78 NW17      30.05R
FOREST CITY *  CLOUDY    68  61  77 NW9       30.05R
IOWA FALLS *     N/A     70  59  68 NW12      30.05R
$$

IAZ007>011-017>019-026>030-037>042-050>054-066-280200-
   NORTHEAST IOWA

CITY           SKY/WX    TMP DP  RH WIND       PRES   REMARKS
CEDAR RAPIDS   CLEAR     70  60  70 NW16      29.97R
CHARLES CITY * CLOUDY    72  61  68 NW16      30.01R
CLINTON *      PTCLDY    70  59  68 NW9       29.94R
DECORAH *      PTCLDY    70  57  64 N12G18    29.97R
DUBUQUE        PTCLDY    70  58  65 NW13      29.94R
MONTICELLO *   PTCLDY    72  63  73 NW9G17    29.94R
OELWEIN *      PTCLDY    70  61  73 NW10G17   29.98R
WATERLOO       CLEAR     72  59  63 NW12      29.98R
$$

IAZ064-065-067-068-078-280200-
   EAST CENTRAL IOWA

CITY           SKY/WX    TMP DP  RH WIND       PRES   REMARKS
DAVENPORT      CLEAR     71  58  63 NW17G30   29.93R
IOWA CITY      PTCLDY    72  60  66 NW14      29.98R
MT. PLEASANT * CLEAR     73  55  53 W7G21     29.99R
MUSCATINE *    MOCLDY    73  59  60 NW17G23   29.96R
QUAD CITIES    PTCLDY    74  58  57 NW17G25   29.92R
$$

IAZ062-063-075>077-085>089-095>099-280200-
   SOUTHEAST IOWA

CITY           SKY/WX    TMP DP  RH WIND       PRES   REMARKS
BURLINGTON     CLEAR     73  58  59 NW10      29.97R
FAIRFIELD *    CLEAR     70  59  68 NW9G16    30.01R
FORT MADISON * CLEAR     73  57  56 NW9G17    29.99S
KEOKUK *       CLEAR     73  59  60 NW12G18   29.98S
OSKALOOSA *      N/A     70  59  68 NW10      30.02S
CENTERVILLE *  PTCLDY    72  57  60 NW14      30.06S
OTTUMWA        CLEAR     70  57  63 NW14      30.02R
WASHINGTON *   PTCLDY    72  61  68 NW12G20   29.99R
$$

ABBREVIATIONS USED IN REMARKS
   TC - TEMPERATURES IN CELSIUS
  WCI - WIND CHILL INDEX
   HX - HEAT INDEX
  VSB - VISIBILITY
$$



USA.gov is the U.S. government's official web portal to all federal, state and local government web resources and services.